Regional Weather Roundup
Issued by NWS

Home | Current Version | Previous Version | Text Only | Print | Product List | Glossary Off
Versions: 1 2 3 4 5 6 7 8 9 10 11 12 13 14 15 16 17 18 19 20 21 22 23 24 25 26 27 28 29 30 31 32 33 34 35 36 37 38 39 40 41 42 43 44 45 46 47 48 49 50

000
ASUS43 KDMX 281603
RWRIA

WEATHER ROUNDUP FOR IOWA
NATIONAL WEATHER SERVICE DES MOINES IA
1100 AM CDT SAT MAY 28 2016

NOTE: "FAIR" INDICATES FEW OR NO CLOUDS BELOW 12,000 FEET WITH NO
SIGNIFICANT WEATHER AND/OR OBSTRUCTIONS TO VISIBILITY.

* - THESE STATIONS ARE NOT NWS STATIONS...THUS NOT UNDER NWS
QUALITY CONTROL.  THEY ALSO DO NOT REPORT WEATHER SUCH
AS PRECIPITATION OR FOG.

IAZ001>003-012>014-020>022-031>034-043>046-281700-
   NORTHWEST IOWA

CITY           SKY/WX    TMP DP  RH WIND       PRES   REMARKS
CARROLL *      PTSUNNY   66  61  82 SW15      29.78S
CHEROKEE *     CLOUDY    66  62  86 S6        29.76F
DENISON *      CLOUDY    66  59  77 S8G16     29.75S
LE MARS *      CLOUDY    66  59  77 VRB7      29.76S
ORANGE CITY *  MOSUNNY   64  59  82 SW6       29.76F
SHELDON *      CLOUDY    64  61  88 S12       29.76R
SIOUX CITY     PTSUNNY   67  59  75 S9        29.74S
SPENCER        CLOUDY    68  60  75 SW12      29.76F
STORM LAKE *     N/A     66  59  77 SW13      29.78R
$$

IAZ055>058-069>071-079>083-090>094-281700-
   SOUTHWEST IOWA

CITY           SKY/WX    TMP DP  RH WIND       PRES   REMARKS
ATLANTIC *     CLOUDY    66  61  82 SW9       29.78S
AUDUBON *        N/A     64  61  88 S9        29.79F
CLARINDA *       N/A     64  61  88 MISG      29.82R
COUNCIL BLFS * MOSUNNY   64  59  82 SW12      29.79S
CRESTON *      PTSUNNY   64  61  88 SW10      29.81R
HARLAN  *      CLOUDY    66  59  77 SW16      29.81S
LAMONI         CLOUDY    67  62  84 S10       29.80R
RED OAK *      PTSUNNY   68  61  77 SW9       29.80R
SHENANDOAH *   CLOUDY    66  61  82 SW12      29.81S
$$

IAZ047>049-059>061-072>074-084-281700-
   CENTRAL IOWA

CITY           SKY/WX    TMP DP  RH WIND       PRES   REMARKS
AMES           CLOUDY    68  63  84 SW13      29.78S
ANKENY *       PTSUNNY   70  64  83 S6G12     29.77F
BOONE *        CLOUDY    68  63  83 S10       29.77S
CHARITON *     CLOUDY    68  63  83 S15       29.80R
DES MOINES     CLOUDY    70  61  73 S9        29.77S
GRINNELL*      MOSUNNY   72  63  73 S10       29.80S
KNOXVILLE *    MOSUNNY   70  61  73 S10G16    29.78S
MARSHALLTOWN   PTSUNNY   70  64  81 SW12      29.78S
NEWTON *       PTSUNNY   72  64  78 SW12G17   29.79R
PERRY *        CLOUDY    68  64  88 SW9       29.79R
$$

IAZ004>006-015-016-023>025-035-036-281700-
   NORTH CENTRAL IOWA

CITY           SKY/WX    TMP DP  RH WIND       PRES   REMARKS
ALGONA *       CLOUDY    70  64  83 S14       29.77S
CLARION *      CLOUDY    70  63  78 SW8       29.78S
ESTHERVILLE    CLOUDY    67  60  78 SW12      29.76S
FORT DODGE *   PTSUNNY   72  61  68 S10       29.77F
MASON CITY     CLOUDY    64  63  96 SE9       29.80S
FOREST CITY *  CLOUDY    64  61  88 SE6       29.78S
WEBSTER CITY * CLOUDY    70  64  83 SE8G14    29.75F
IOWA FALLS *   CLOUDY    68  63  83 S9        29.80S
$$

IAZ007>011-017>019-026>030-037>042-050>054-066-281700-
   NORTHEAST IOWA

CITY           SKY/WX    TMP DP  RH WIND       PRES   REMARKS
CEDAR RAPIDS   MOSUNNY   74  65  73 S18G26    29.81R
CHARLES CITY * CLOUDY    68  66  94 SW7       29.80R
CLINTON *      PTSUNNY   76  66  71 S22       29.85S
DECORAH *      PTSUNNY   68  66  94 SW10      29.80R
DUBUQUE        CLOUDY    71  65  81 SW15      29.84R
MONTICELLO *   PTSUNNY   72  64  78 S12       29.82S
OELWEIN *      CLOUDY    70  66  88 S12       29.80F
WATERLOO       CLOUDY    72  63  73 S10       29.78F
$$

IAZ064-065-067-068-078-281700-
   EAST CENTRAL IOWA

CITY           SKY/WX    TMP DP  RH WIND       PRES   REMARKS
DAVENPORT      MOSUNNY   76  64  66 S21G30    29.85R
IOWA CITY      MOSUNNY   76  63  64 SW16G26   29.83S
MT. PLEASANT * PTSUNNY   77  68  73 S15       29.85R
MUSCATINE *    MOSUNNY   77  64  65 S17G24    29.84R
QUAD CITIES    MOSUNNY   78  64  61 S12G24    29.84S HX  80
$$

IAZ062-063-075>077-085>089-095>099-281700-
   SOUTHEAST IOWA

CITY           SKY/WX    TMP DP  RH WIND       PRES   REMARKS
BURLINGTON     PTSUNNY   74  67  78 S12       29.86S
FAIRFIELD *      N/A    N/A N/A N/A MISG        N/A
FORT MADISON * PTSUNNY   73  66  78 S13       29.87R
KEOKUK *       PTSUNNY   73  66  78 S9G15     29.86R
OSKALOOSA *    PTSUNNY   73  63  68 S16G22    29.81F
OTTUMWA        CLOUDY    73  64  73 S17       29.81S
WASHINGTON *   SUNNY     75 -35   1 S15       29.84R
$$

ABBREVIATIONS USED IN REMARKS
   TC - TEMPERATURES IN CELSIUS
  WCI - WIND CHILL INDEX
   HX - HEAT INDEX
  VSB - VISIBILITY
$$





USA.gov is the U.S. government's official web portal to all federal, state and local government web resources and services.